Probability
0 0 0 0 0 0 0 0 0 0 0 0 0 0 0 0 0 3 6 6 6 13 19 32 39 42 42 45 39 32 39 32 29 35 35 29 29 26 29 35 35 35 32 32 26 19 19 13 16
0 0 0 0 0 0 0 0 0 0 3 0 0 0 3 3 3 3 10 6 13 16 23 26 39 42 42 42 35 29 32 32 29 29 23 32 29 23 26 29 32 26 29 26 23 23 16 13 13
0 0 0 0 0 0 0 0 0 3 0 0 0 3 3 3 3 3 10 13 13 16 23 26 39 42 42 39 35 32 26 23 23 26 23 23 23 26 23 23 19 23 23 23 23 16 16 13 13
0 0 0 0 0 0 0 0 0 0 0 0 0 3 3 3 3 3 10 13 10 16 16 29 32 32 35 35 29 26 23 19 16 29 19 23 23 23 16 16 13 13 13 16 13 13 16 16 16
0 0 0 0 0 0 0 0 0 0 0 0 0 3 3 0 3 6 10 13 13 16 16 26 35 32 32 32 26 26 23 23 23 23 19 13 19 19 13 6 13 13 13 13 10 13 13 10 6
0 0 0 0 0 0 0 0 0 0 0 0 0 0 3 3 6 6 10 16 13 16 19 26 32 32 29 29 26 26 26 23 23 19 19 16 13 13 10 10 6 6 13 10 10 10 13 10 10
0 0 0 0 0 0 0 0 0 0 0 0 0 0 0 0 3 6 10 10 13 13 19 23 23 23 23 23 19 19 23 19 16 16 19 19 16 13 13 13 6 6 6 10 10 10 10 6 10
0 0 0 0 0 0 0 0 0 0 0 0 0 0 0 0 0 6 6 10 6 10 13 16 16 16 16 16 13 10 13 16 16 13 13 10 10 10 16 10 13 13 10 6 10 10 10 10 10
0 0 0 0 0 0 0 0 0 0 0 0 0 0 0 0 0 10 6 6 6 6 6 13 16 13 10 10 10 10 10 10 6 6 6 6 6 3 3 3 6 6 6 6 6 13 13 13 6
0 0 0 0 0 0 0 0 0 0 0 0 0 0 0 0 3 6 6 6 6 6 6 6 10 13 10 10 10 13 10 10 6 6 3 3 3 3 3 3 3 3 3 3 3 3 3 3 10
0 0 0 0 0 0 0 0 0 0 0 0 0 0 3 0 0 0 0 3 6 6 6 6 6 3 6 10 10 13 10 6 3 3 3 3 6 6 6 6 6 6 3 3 3 3 6 6 6
0 0 0 0 0 0 0 0 0 0 0 0 0 0 0 3 0 0 0 6 6 6 6 6 6 3 3 6 10 10 10 10 6 6 6 6 10 6 6 6 6 3 3 3 3 0 3 3 6
0 0 0 0 0 0 0 0 0 0 0 0 0 0 0 3 0 0 0 3 6 6 6 6 6 6 3 3 10 10 10 10 6 6 6 6 6 6 6 6 3 3 3 3 0 0 0 0 0
0 0 0 0 0 0 0 0 0 0 0 0 0 0 0 0 0 0 0 0 6 10 6 6 6 3 3 3 3 6 10 10 10 10 6 3 3 3 3 3 3 3 3 0 0 0 0 0 0
0 0 0 0 0 0 0 0 0 0 0 0 0 0 0 0 0 0 0 0 3 10 6 6 6 3 3 3 3 3 3 6 6 6 3 3 3 3 3 3 3 3 0 0 0 0 0 0 0
0 0 0 0 0 0 0 0 0 0 0 0 0 0 0 0 0 0 0 0 0 3 6 6 6 3 0 0 0 0 0 3 3 3 3 3 3 3 3 3 3 3 0 0 0 0 0 0 0
0 0 0 0 0 0 0 0 0 0 0 0 0 0 0 0 0 0 0 0 3 3 0 3 0 0 0 0 0 0 0 0 3 3 3 3 3 3 3 3 3 0 0 0 0 0 0 0 0
0 0 0 0 0 0 0 0 0 0 0 0 0 0 0 0 0 0 0 0 0 0 0 0 0 0 0 0 0 0 0 0 3 3 3 3 3 3 3 3 0 0 0 0 0 0 0 0 0
0 0 0 0 0 0 0 0 0 0 0 0 0 0 0 0 0 0 0 0 0 0 0 0 0 0 0 0 0 0 0 0 0 3 3 3 3 3 3 0 0 0 0 0 0 0 0 0 0
0 0 0 0 0 0 0 0 0 0 0 0 0 0 0 0 0 0 0 0 0 0 0 0 0 0 0 0 0 0 0 0 0 3 3 3 3 3 3 0 0 0 0 0 0 0 0 0 0
0 0 0 0 0 0 0 0 0 0 0 0 0 0 0 0 0 0 0 0 0 0 0 0 0 0 0 0 0 0 0 0 0 0 3 3 3 3 3 0 0 0 0 0 0 0 0 0 0
0 0 0 0 0 0 0 0 0 0 0 0 0 0 0 0 0 0 0 0 0 0 0 0 0 0 0 0 0 0 0 0 0 0 0 3 3 3 3 0 0 0 0 0 0 0 0 0 0
0 0 0 0 0 0 0 0 0 0 0 0 0 0 0 0 0 0 0 0 0 0 0 0 0 0 0 0 0 0 0 0 0 0 0 3 3 3 3 0 0 0 0 0 0 0 0 0 0
0 0 0 0 0 0 0 0 0 0 0 0 0 0 0 0 0 0 0 0 0 0 0 0 0 0 0 0 0 0 0 0 0 0 0 0 0 3 3 0 0 0 0 0 0 0 0 0 0
0 0 0 0 0 0 0 0 0 0 0 0 0 0 0 0 0 0 0 0 0 0 0 0 0 0 0 0 0 0 0 0 0 0 0 0 0 3 0 0 0 0 0 0 0 0 0 0 0
0 0 0 0 0 0 0 0 0 0 0 0 0 0 0 0 0 0 0 0 0 0 0 0 0 0 0 0 0 0 0 0 0 0 0 0 0 0 0 0 0 0 0 0 0 0 0 0 0
0 0 0 0 0 0 0 0 0 0 0 0 0 0 0 0 0 0 0 0 0 0 0 0 0 0 0 0 0 0 0 0 0 0 0 0 0 0 0 0 0 0 0 0 0 0 0 0 0
0 0 0 0 0 0 0 0 0 0 0 0 0 0 0 0 0 0 0 0 0 0 0 0 0 0 0 0 0 0 0 0 0 0 0 0 0 0 0 0 0 0 0 0 0 0 0 0 0
0 0 0 0 0 0 0 0 0 0 0 0 0 0 0 0 0 0 0 0 0 0 0 0 0 0 0 0 0 0 0 0 0 0 0 0 0 0 0 0 0 0 0 0 0 0 0 0 0
0 0 0 0 0 0 0 0 0 0 0 0 0 0 0 0 0 0 0 0 0 0 0 0 0 0 0 0 0 0 0 0 0 0 0 0 0 0 0 0 0 0 0 0 0 0 0 0 0
Height
5807 5809 5810 5811 5813 5814 5815 5817 5819 5820 5821 5823 5824 5825 5827 5828 5830 5833 5832 5832 5833 5834 5835 5835 5836 5837 5838 5839 5839 5840 5841 5842 5843 5844 5845 5845 5846 5846 5847 5847 5848 5848 5849 5849 5850 5850 5850 5851 5851
5802 5803 5805 5806 5806 5808 5811 5812 5813 5815 5816 5817 5818 5820 5821 5823 5824 5825 5826 5827 5828 5830 5831 5832 5833 5834 5834 5835 5836 5837 5838 5839 5840 5841 5842 5842 5843 5843 5844 5844 5845 5845 5846 5846 5847 5847 5847 5848 5848
5796 5797 5799 5799 5800 5803 5805 5807 5808 5809 5810 5811 5812 5814 5816 5818 5819 5820 5822 5823 5824 5825 5826 5827 5829 5830 5830 5831 5832 5833 5834 5835 5836 5837 5838 5839 5839 5840 5840 5841 5841 5842 5842 5843 5844 5844 5844 5845 5845
5790 5791 5792 5793 5795 5797 5799 5801 5801 5802 5803 5805 5806 5808 5810 5813 5814 5815 5816 5818 5819 5820 5822 5823 5824 5825 5826 5827 5828 5829 5830 5831 5832 5833 5834 5835 5836 5836 5837 5837 5838 5838 5839 5839 5840 5840 5841 5841 5842
5783 5784 5785 5786 5789 5791 5792 5794 5795 5796 5797 5799 5800 5802 5804 5806 5808 5809 5811 5812 5814 5815 5817 5818 5819 5820 5821 5822 5824 5825 5826 5827 5828 5829 5830 5830 5831 5832 5833 5833 5833 5834 5835 5835 5836 5836 5837 5837 5838
5778 5778 5779 5780 5782 5784 5786 5787 5788 5789 5791 5792 5794 5796 5798 5800 5802 5803 5805 5806 5808 5810 5811 5813 5814 5815 5817 5818 5819 5820 5821 5821 5823 5824 5824 5826 5827 5827 5828 5829 5829 5830 5830 5831 5831 5832 5833 5833 5833
5772 5772 5772 5774 5775 5777 5779 5780 5781 5782 5784 5785 5787 5789 5792 5793 5795 5797 5798 5800 5802 5803 5805 5807 5808 5810 5811 5812 5813 5814 5815 5816 5817 5818 5819 5820 5821 5822 5823 5824 5824 5825 5825 5826 5826 5827 5828 5828 5829
5764 5766 5766 5767 5768 5770 5772 5772 5774 5775 5777 5779 5780 5782 5785 5787 5788 5790 5792 5793 5795 5797 5798 5800 5802 5803 5804 5806 5807 5808 5809 5810 5811 5812 5814 5814 5815 5816 5817 5818 5819 5820 5820 5821 5821 5822 5822 5823 5823
5757 5759 5759 5760 5761 5762 5764 5765 5766 5768 5770 5771 5772 5775 5777 5779 5780 5782 5784 5786 5788 5790 5791 5793 5795 5796 5797 5799 5800 5802 5803 5804 5805 5806 5807 5808 5809 5810 5811 5812 5813 5814 5814 5815 5815 5816 5816 5817 5817
5750 5751 5753 5753 5753 5755 5756 5757 5759 5760 5762 5764 5765 5767 5769 5771 5773 5775 5777 5778 5780 5782 5784 5786 5787 5789 5790 5791 5793 5794 5796 5797 5798 5799 5800 5801 5802 5803 5804 5805 5806 5807 5808 5808 5809 5809 5810 5810 5810
5743 5744 5745 5745 5746 5747 5748 5750 5751 5752 5755 5756 5758 5759 5761 5763 5765 5766 5768 5770 5772 5774 5776 5778 5779 5781 5782 5784 5785 5787 5788 5789 5791 5792 5793 5794 5795 5796 5797 5798 5799 5800 5801 5801 5802 5802 5802 5803 5803
5737 5737 5737 5738 5738 5740 5741 5742 5743 5745 5747 5748 5749 5751 5752 5754 5756 5758 5760 5762 5764 5766 5768 5769 5771 5773 5774 5775 5777 5779 5780 5781 5783 5784 5785 5786 5787 5788 5789 5790 5791 5792 5793 5794 5794 5795 5795 5795 5795
5730 5731 5731 5731 5731 5732 5733 5734 5735 5737 5738 5739 5740 5742 5744 5745 5747 5749 5750 5753 5754 5757 5758 5760 5762 5764 5765 5767 5768 5770 5771 5773 5774 5775 5777 5778 5779 5780 5781 5782 5783 5784 5785 5786 5786 5786 5787 5787 5787
5724 5724 5724 5724 5724 5725 5726 5727 5728 5730 5730 5731 5732 5733 5734 5736 5737 5739 5741 5743 5745 5747 5749 5751 5753 5755 5756 5758 5759 5761 5762 5763 5765 5766 5768 5769 5770 5771 5772 5773 5774 5775 5776 5777 5777 5777 5778 5778 5778
5718 5718 5717 5717 5717 5718 5718 5719 5721 5721 5721 5722 5723 5724 5725 5726 5727 5729 5731 5733 5735 5737 5739 5741 5743 5745 5747 5748 5750 5751 5753 5754 5755 5757 5758 5759 5760 5762 5763 5764 5765 5766 5766 5767 5767 5768 5768 5768 5768
5711 5711 5711 5711 5710 5710 5712 5712 5713 5712 5713 5713 5714 5715 5715 5716 5717 5719 5721 5724 5726 5728 5730 5731 5733 5735 5737 5738 5740 5741 5742 5744 5745 5746 5747 5749 5750 5751 5752 5753 5754 5755 5756 5757 5757 5758 5758 5758 5758
5705 5704 5704 5704 5703 5702 5703 5704 5704 5704 5704 5705 5705 5705 5706 5707 5708 5710 5712 5714 5716 5718 5720 5722 5724 5725 5727 5728 5729 5731 5732 5732 5734 5736 5737 5738 5739 5740 5741 5743 5744 5745 5746 5746 5747 5747 5747 5747 5748
5699 5698 5697 5696 5695 5695 5695 5696 5696 5696 5696 5696 5696 5696 5697 5698 5699 5700 5702 5705 5707 5709 5711 5712 5714 5715 5717 5718 5719 5720 5721 5722 5723 5724 5725 5726 5728 5729 5730 5731 5732 5733 5734 5735 5735 5736 5736 5736 5736
5692 5691 5690 5689 5687 5687 5687 5688 5689 5687 5688 5688 5688 5688 5689 5689 5690 5691 5693 5695 5697 5699 5701 5702 5704 5705 5706 5707 5708 5709 5710 5711 5712 5712 5713 5715 5716 5717 5718 5719 5721 5722 5723 5723 5724 5724 5724 5724 5724
5685 5683 5682 5681 5680 5679 5679 5680 5680 5679 5679 5679 5679 5679 5680 5681 5681 5683 5684 5685 5687 5689 5690 5692 5693 5694 5695 5696 5697 5698 5699 5700 5700 5701 5702 5703 5704 5705 5706 5708 5709 5710 5710 5711 5711 5711 5711 5712 5711
5678 5677 5675 5674 5672 5671 5671 5672 5672 5672 5671 5670 5670 5670 5671 5672 5672 5673 5674 5675 5677 5679 5680 5681 5682 5683 5684 5685 5686 5687 5688 5688 5689 5689 5690 5691 5692 5694 5695 5695 5696 5697 5698 5699 5698 5698 5699 5699 5698
5671 5670 5668 5666 5665 5664 5664 5662 5665 5664 5663 5662 5661 5661 5662 5662 5663 5664 5665 5666 5667 5668 5669 5670 5671 5672 5673 5674 5675 5676 5677 5677 5677 5678 5678 5679 5680 5681 5682 5683 5684 5684 5685 5685 5685 5685 5685 5685 5685
5664 5662 5660 5658 5656 5656 5655 5653 5656 5655 5654 5654 5653 5653 5653 5653 5653 5654 5654 5655 5656 5657 5658 5659 5659 5661 5662 5663 5664 5665 5665 5666 5666 5666 5667 5668 5668 5669 5670 5670 5671 5672 5672 5672 5672 5672 5672 5672 5672
5656 5654 5652 5650 5648 5648 5648 5646 5646 5647 5646 5645 5645 5644 5644 5644 5644 5644 5645 5645 5646 5647 5647 5648 5649 5650 5651 5651 5652 5653 5654 5654 5655 5655 5655 5656 5657 5657 5658 5658 5659 5659 5659 5659 5659 5658 5658 5659 5659
5648 5647 5644 5642 5640 5640 5639 5637 5638 5638 5637 5636 5636 5635 5635 5635 5635 5635 5636 5636 5636 5637 5637 5638 5638 5639 5639 5640 5641 5642 5642 5643 5643 5644 5644 5644 5645 5645 5646 5646 5646 5646 5646 5646 5645 5645 5645 5646 5646
5641 5639 5638 5635 5633 5632 5630 5629 5631 5630 5629 5627 5627 5627 5626 5626 5627 5627 5626 5626 5626 5627 5627 5628 5628 5628 5629 5629 5630 5630 5631 5631 5632 5632 5633 5633 5633 5633 5634 5633 5634 5633 5633 5633 5632 5632 5632 5632 5633
5633 5632 5631 5628 5625 5624 5622 5622 5623 5622 5621 5619 5619 5618 5618 5618 5617 5617 5617 5617 5617 5617 5617 5617 5617 5618 5618 5619 5619 5619 5620 5620 5620 5620 5621 5621 5621 5621 5621 5621 5621 5621 5621 5620 5620 5619 5620 5620 5620
5626 5624 5623 5620 5617 5616 5615 5615 5615 5613 5612 5612 5611 5610 5610 5609 5609 5608 5608 5608 5607 5607 5607 5607 5607 5607 5608 5608 5608 5608 5608 5609 5609 5609 5609 5609 5609 5609 5609 5609 5609 5608 5608 5608 5607 5607 5607 5607 5607
5619 5617 5614 5612 5611 5609 5606 5609 5608 5606 5604 5603 5602 5602 5601 5600 5600 5599 5599 5599 5598 5597 5597 5597 5597 5597 5597 5597 5597 5598 5598 5598 5597 5597 5597 5597 5597 5597 5597 5597 5596 5596 5595 5595 5595 5595 5595 5595 5595
5610 5609 5607 5606 5604 5601 5598 5602 5600 5598 5596 5595 5594 5593 5593 5592 5592 5591 5590 5590 5589 5588 5588 5587 5587 5586 5586 5586 5587 5587 5587 5587 5586 5586 5586 5586 5586 5586 5585 5585 5584 5584 5583 5583 5583 5582 5582 5582 5582
Wind_Speed
27 27 27 27 28 29 28 28 28 28 28 27 27 26 26 25 24 24 23 23 22 21 21 21 20 20 20 19 18 17 17 17 17 16 16 16 15 15 15 14 14 14 14 13 13 13 13 13 12
27 28 28 29 29 29 28 28 29 29 29 28 28 28 27 27 26 26 25 24 23 23 22 22 21 21 21 20 19 19 18 18 18 18 18 18 18 17 17 16 16 16 15 15 15 15 15 15 14
27 28 30 30 30 29 28 27 28 29 29 30 29 29 29 28 27 26 26 25 25 25 24 24 23 23 22 22 21 21 21 21 20 20 20 19 19 19 19 18 18 18 17 17 16 16 17 17 16
27 28 30 31 30 29 29 29 29 29 29 30 30 30 30 29 28 28 27 27 26 26 25 25 25 24 23 22 23 22 22 22 22 22 22 21 21 20 20 20 20 20 19 19 18 19 19 19 18
28 29 30 30 29 29 29 29 29 29 30 30 31 31 30 29 29 29 28 28 27 27 27 27 26 26 24 24 24 24 24 24 24 24 23 23 23 22 22 22 22 21 21 20 20 20 20 20 20
28 29 29 30 29 29 29 29 29 30 30 30 31 31 31 30 30 30 30 29 29 29 29 29 28 28 27 26 26 26 25 25 25 25 25 25 25 24 24 24 23 23 23 23 22 22 22 22 22
29 29 30 30 30 30 29 29 30 30 31 31 32 32 32 32 32 32 31 31 31 31 30 30 30 30 29 29 28 27 27 27 27 27 27 27 27 27 26 26 26 25 25 24 24 24 24 24 24
29 30 30 29 30 30 30 30 31 31 31 32 32 33 33 33 33 34 33 33 33 33 32 32 32 32 31 30 30 30 30 29 29 29 29 29 29 29 28 28 28 28 27 27 27 26 26 26 26
29 30 30 29 30 30 30 31 31 32 32 33 33 34 35 35 35 36 35 35 35 34 34 34 34 34 34 33 33 32 32 31 31 31 31 31 31 30 30 30 30 29 29 29 29 28 28 28 28
28 29 29 30 31 31 31 32 32 33 33 34 34 35 36 36 36 37 37 37 36 36 36 36 36 36 36 35 35 35 34 34 33 33 33 32 32 32 32 32 32 32 31 31 31 30 30 30 30
28 28 29 30 31 31 32 33 33 33 34 34 35 36 37 37 37 38 39 39 38 38 37 37 37 38 38 37 37 37 36 36 35 35 35 34 34 34 34 34 33 33 33 33 33 32 32 32 33
26 27 28 29 30 30 31 32 33 34 34 34 35 36 37 38 38 39 40 40 40 39 39 39 38 38 39 39 39 38 38 38 37 37 37 36 37 37 36 36 36 35 35 35 35 35 35 35 35
25 26 27 28 29 31 31 32 32 32 33 34 34 35 35 37 38 39 40 41 42 41 40 41 40 40 40 40 40 40 41 40 40 40 39 39 39 39 38 38 38 38 38 37 37 37 37 37 37
24 25 26 27 29 30 31 32 33 32 34 34 34 35 36 36 37 38 39 39 41 41 41 41 41 41 41 42 42 42 42 42 43 42 42 42 41 41 40 40 40 40 40 40 40 40 40 40 40
23 25 26 27 29 30 31 32 32 32 33 33 33 34 35 36 37 38 38 39 39 40 40 41 42 42 43 43 44 44 43 44 44 44 44 44 44 44 43 43 43 42 42 42 42 42 42 42 42
25 25 26 28 29 30 31 30 31 31 32 32 33 34 35 36 37 38 39 39 39 39 40 40 41 42 42 43 44 45 45 45 45 45 45 45 45 45 45 45 45 45 44 43 44 44 44 44 43
25 26 27 28 29 30 31 30 31 31 31 31 32 33 35 35 35 37 38 38 39 39 39 40 40 41 41 42 43 44 45 46 46 47 47 47 47 47 47 47 46 46 46 46 46 46 46 45 45
25 26 27 28 29 30 30 30 30 31 31 31 32 32 33 34 35 36 38 38 40 40 40 40 40 40 41 42 43 44 44 45 46 47 48 47 47 47 47 48 47 47 47 47 47 47 47 47 46
25 26 27 27 29 30 30 30 30 31 32 32 32 33 33 34 35 36 38 39 39 40 41 41 41 41 41 42 43 44 45 46 47 47 47 47 48 48 48 48 47 48 48 48 48 48 48 48 48
25 26 26 27 28 29 30 30 31 31 32 32 32 33 33 35 36 37 38 39 39 40 40 41 41 42 43 43 43 44 45 46 46 46 47 47 47 47 48 49 49 48 48 48 49 49 49 49 49
26 26 27 27 28 29 30 30 30 30 31 32 33 34 34 34 36 37 38 38 39 39 40 41 41 42 43 44 44 44 44 45 46 46 47 47 47 48 48 49 49 49 49 49 50 50 51 51 51
27 27 27 28 28 29 29 30 29 30 30 32 32 33 33 34 36 37 38 39 39 39 40 41 41 42 43 43 44 44 44 45 45 46 47 47 48 48 48 48 49 49 49 50 51 51 51 51 51
28 28 28 28 29 30 30 31 29 29 30 31 31 31 32 33 35 36 38 39 39 39 40 40 40 41 42 43 43 44 44 44 45 45 46 47 48 48 48 48 49 49 50 50 50 51 51 51 51
28 29 29 29 30 31 29 31 29 28 29 30 31 30 31 31 32 34 35 37 38 39 39 40 39 39 40 41 42 43 44 44 44 45 46 47 47 47 48 48 48 48 49 49 49 50 50 51 51
28 28 29 29 29 30 30 31 29 28 27 29 30 30 30 31 30 31 33 35 36 37 38 38 38 39 39 40 41 43 44 44 44 45 45 46 47 47 47 48 48 48 48 48 48 49 49 50 50
27 27 27 28 29 29 29 30 29 27 27 28 29 30 30 30 30 31 32 33 35 36 37 38 38 38 38 39 41 42 42 42 43 44 44 45 45 46 47 48 48 48 48 47 47 47 48 48 49
27 26 27 28 29 29 29 29 27 27 27 28 28 29 29 30 30 30 31 33 34 35 36 38 38 38 38 38 39 40 41 41 43 43 44 44 45 45 45 46 46 46 47 47 47 47 47 47 48
26 27 27 27 29 29 29 28 27 26 26 27 28 28 29 29 30 31 31 32 33 34 35 36 37 38 38 38 39 40 41 42 42 42 43 43 44 44 44 44 44 45 45 45 45 45 45 46 47
26 26 27 28 29 30 29 28 26 26 26 25 26 27 27 28 29 30 31 31 32 33 33 35 37 37 38 38 38 40 40 41 41 41 41 42 43 43 43 43 43 44 44 44 44 44 45 46 46
26 27 27 28 28 29 30 29 26 26 26 25 26 26 27 27 28 29 30 31 32 32 32 33 34 35 37 38 38 38 39 39 39 39 39 40 40 41 41 41 42 43 43 43 42 42 42 43 44
Wind_Direction
250 249 249 249 249 249 248 248 248 246 246 245 245 245 245 246 246 246 245 244 244 244 245 245 245 245 244 242 239 239 240 242 242 242 242 242 243 244 245 245 246 246 247 248 249 249 249 251 251
251 250 250 250 250 251 250 250 249 247 246 246 245 244 244 245 246 246 246 245 244 244 245 245 245 245 245 245 242 241 241 242 243 244 245 246 246 247 246 247 248 248 248 249 250 250 251 253 252
252 251 251 251 251 251 251 250 249 247 246 246 245 244 245 244 245 246 246 246 245 245 245 245 246 246 246 244 243 242 243 243 244 246 247 248 249 249 248 247 249 251 250 250 251 251 252 253 255
253 253 252 252 252 252 252 250 249 247 246 246 245 244 244 245 245 246 246 246 246 246 246 246 247 247 245 245 245 245 244 244 245 247 248 249 249 250 250 249 250 252 252 252 253 254 254 255 256
253 253 253 252 252 252 251 250 249 248 247 246 245 244 244 245 245 245 246 246 246 246 246 246 247 247 247 247 246 247 246 247 247 248 249 249 249 250 251 251 252 253 254 254 254 255 255 256 257
255 255 255 255 253 252 251 251 249 249 248 248 246 245 244 245 245 245 246 247 247 247 247 247 247 247 248 249 249 248 248 249 250 250 250 250 251 252 252 252 252 253 255 255 255 256 257 257 257
255 255 256 256 255 253 252 251 250 249 248 248 248 247 245 246 246 246 246 247 248 248 248 248 249 249 249 249 249 250 250 251 251 252 252 252 253 253 253 253 253 253 255 256 257 258 257 258 258
256 256 256 255 255 254 252 250 250 249 248 248 249 247 246 246 247 247 247 247 248 249 249 249 249 249 249 250 251 251 252 252 253 254 254 254 254 254 253 254 255 255 256 257 258 258 258 257 258
257 255 255 255 254 252 251 251 250 250 250 249 249 249 247 246 247 247 247 247 248 248 249 249 249 250 250 250 251 252 252 253 254 254 254 254 254 255 255 255 255 256 257 258 259 259 258 257 258
257 256 256 255 254 253 251 252 251 251 250 250 251 251 249 248 248 248 248 247 247 248 248 249 249 249 250 250 251 252 252 253 254 254 254 255 255 256 256 256 257 257 257 258 259 259 259 258 259
259 258 257 256 254 253 252 252 252 253 252 252 252 252 251 250 249 249 249 249 249 248 248 249 250 250 251 251 252 252 253 253 253 254 254 255 255 255 256 257 258 258 258 258 259 260 260 260 260
260 259 258 256 254 254 253 252 252 253 252 253 253 253 253 251 250 250 250 250 250 249 250 250 251 251 251 252 252 253 253 253 253 253 254 255 255 255 256 257 257 258 259 259 260 260 261 261 261
263 261 259 256 255 254 254 254 254 255 254 254 254 254 254 253 252 250 250 250 250 249 249 249 250 251 252 252 252 252 252 253 253 253 254 255 256 256 256 257 258 258 259 260 260 261 262 262 262
265 265 263 260 258 257 257 255 256 257 255 256 256 256 256 255 252 251 250 250 250 249 249 250 250 251 252 253 253 253 254 253 254 254 255 255 257 257 258 258 258 259 260 260 261 261 262 263 264
269 268 266 264 263 262 260 259 260 257 256 258 257 258 257 255 252 250 249 249 250 250 250 250 251 252 253 253 254 255 255 255 255 255 256 256 257 258 258 259 259 260 260 261 262 262 263 263 264
272 271 269 266 266 266 264 263 262 258 259 260 260 260 259 255 252 250 249 248 249 251 252 252 252 252 253 254 254 255 255 255 256 256 257 257 258 258 259 259 260 260 261 262 263 263 263 264 264
274 273 272 269 266 266 266 266 262 259 261 263 263 261 259 254 251 249 249 249 249 251 252 253 254 254 254 254 255 256 256 256 257 257 258 258 259 259 259 260 260 261 261 262 262 263 264 264 265
277 277 275 272 269 268 268 267 263 262 263 263 264 263 260 253 251 250 249 250 250 251 252 254 255 256 257 256 256 257 257 258 258 257 258 259 260 260 260 260 260 261 261 261 262 263 264 265 266
280 280 279 276 272 270 268 266 264 265 264 264 263 261 258 254 253 252 251 252 252 253 253 254 255 258 258 258 258 258 258 258 259 259 259 259 259 260 260 260 260 260 262 262 263 264 264 264 265
281 281 280 277 273 271 268 267 267 265 263 263 262 260 258 256 255 254 253 253 253 253 254 255 257 258 259 259 259 259 259 259 259 260 260 260 260 260 260 261 260 261 261 263 263 264 264 265 265
281 281 279 277 275 274 273 269 268 266 264 264 263 261 259 257 256 255 254 254 254 254 256 257 257 258 259 259 259 259 260 260 260 260 259 260 260 260 261 262 261 262 262 263 264 264 264 264 265
281 281 280 278 277 276 275 273 269 268 266 265 265 263 260 258 257 255 255 255 256 255 256 257 259 259 260 259 259 260 260 260 260 260 260 259 260 260 262 261 261 262 263 264 265 265 265 265 265
281 280 280 279 277 276 275 276 272 270 268 267 266 264 261 259 258 257 257 258 257 257 257 258 260 261 260 260 260 260 260 260 260 260 260 261 260 261 262 262 262 263 264 265 265 265 265 266 266
282 281 280 280 279 277 277 277 276 274 272 269 266 265 262 261 261 259 259 260 259 258 258 258 261 261 261 261 261 261 261 261 261 261 262 262 261 261 262 262 263 264 265 265 265 265 265 265 266
283 283 283 283 281 280 279 278 278 278 274 271 267 265 263 262 263 262 261 261 260 259 260 260 261 261 262 262 262 262 262 261 261 262 263 262 261 261 261 262 263 264 265 265 265 265 265 265 265
283 282 282 284 285 283 282 281 280 279 275 272 269 267 265 264 264 264 263 262 261 260 261 261 261 261 263 262 262 262 263 263 262 263 263 262 262 261 261 263 263 264 265 265 264 264 265 265 265
282 280 279 282 283 284 283 284 282 281 275 272 270 268 267 266 266 265 264 264 264 263 262 262 261 261 262 263 264 263 263 263 263 263 262 262 261 262 262 263 264 265 265 265 264 264 265 266 265
282 282 280 281 284 286 287 286 285 283 279 274 270 269 268 268 267 266 265 265 266 265 264 262 262 261 262 264 265 264 265 265 264 263 263 264 263 263 264 265 265 266 266 266 266 265 265 266 266
283 283 282 281 282 285 286 286 285 282 279 275 270 269 268 268 269 268 267 268 268 268 267 265 264 264 263 264 265 266 265 267 265 264 264 264 265 265 266 266 266 267 266 266 266 266 266 266 265
283 283 283 282 284 284 284 284 283 280 277 274 273 271 269 269 269 269 269 269 269 269 269 268 267 266 265 265 266 267 268 269 268 267 265 266 266 266 266 266 267 267 267 266 266 266 266 266 265